Location: Cavenago di Brianza
(45.5833°N, 9.4167°E)
Time: 17:31:24
(UTC+00:00)

Daily predictions for brighter satellites

Satellite Brightness Start Highest point End
(mag) Time Altitude Azimuth Time Altitude Azimuth Time Altitude Azimuth
Cosmos 2219 3.6 16:36:29 10° NNW 16:41:59 43° ENE 16:47:26 10° SE
BREEZE-M R/B 3.5 16:43:58 10° WNW 16:47:12 50° N 16:53:15 10° ENE
ATLAS 5 CENTAUR R/B 4.0 16:45:58 10° WNW 16:48:30 15° NNW 16:51:14 10° NNE
COSMO-SKYMED 1 3.5 16:46:23 10° NE 16:50:08 27° E 16:53:49 10° SSE
H-2A R/B 2.6 16:46:09 10° N 16:50:16 59° WNW 16:54:17 10° SSW
Cosmos 44 3.1 16:45:53 10° SSW 16:50:21 77° SE 16:55:08 10° NE
H-2A R/B 3.5 16:51:52 10° E 16:55:29 18° ENE 16:59:06 10° NNE
Cosmos 1825 Rocket 3.7 16:53:40 10° N 16:58:08 83° W 17:02:31 10° S
Cosmos 1656 4.1 16:55:29 10° S 17:00:40 41° ESE 17:05:56 10° NE
CZ-4B R/B 3.8 16:56:40 10° S 17:02:13 65° WSW 17:07:44 10° NNW
Cosmos 1939 Rocket 3.2 16:59:06 10° SE 17:02:48 40° ENE 17:06:29 10° N
YAOGAN 1 3.7 17:00:26 10° ESE 17:03:48 23° ENE 17:07:12 10° NNE
USA 307 3.7 17:00:00 10° NW 17:04:01 37° NNE 17:07:24 13° E
Meteor 2-21 Rocket 4.5 16:58:14 10° N 17:04:27 85° E 17:10:34 10° S
SeaSat 1 4.1 17:03:39 11° ENE 17:06:04 15° NE 17:08:53 10° N
Okean O Rocket 2.3 17:01:52 10° S 17:06:10 59° W 17:10:29 10° NNW
Cosmos 1331 Rocket 4.3 17:02:55 10° SSW 17:08:03 70° WNW 17:13:13 10° NNE
USA 308 3.6 17:04:55 10° NW 17:08:58 38° NNE 17:12:08 15° E
Cosmos 1408 3.8 17:07:09 10° NNE 17:09:59 21° ENE 17:12:48 10° ESE
Timation 2 Rocket 4.3 17:03:58 10° NNW 17:10:37 85° WSW 17:17:27 10° SSE
USA 215 4.3 17:07:14 10° ENE 17:12:52 33° N 17:18:32 10° WNW
Cosmos 1726 Rocket 3.6 17:08:33 10° S 17:12:54 88° W 17:17:20 10° N
Cosmos 2227 Rocket 2.3 17:08:58 10° NNW 17:14:34 57° ENE 17:20:08 10° SE
Helios 1A Rocket 3.4 17:11:15 10° SE 17:15:04 39° ENE 17:18:54 10° N
Cosmos 1892 3.2 17:12:20 10° N 17:15:59 37° ENE 17:19:37 10° SE
Cosmos 2228 3.6 17:11:52 10° SSW 17:16:03 60° W 17:20:18 10° N
ATLAS 2AS CENTAUR R/B 4.0 17:11:09 10° NNW 17:17:27 27° NNE 17:22:02 15° ENE
Aureole 3 Rocket 3.2 17:13:32 10° S 17:17:27 62° E 17:22:56 10° NNE
Cosmos 2263 Rocket 3.9 17:14:40 10° N 17:17:45 15° NE 17:19:27 13° ENE
Cosmos 1400 Rocket 2.8 17:13:46 10° S 17:17:50 66° E 17:21:54 10° NNE
Cosmos 292 Rocket 4.2 17:15:39 10° SSW 17:20:25 67° WNW 17:25:15 10° NNE
IRS-1C Rocket 4.0 17:16:19 10° SSE 17:21:32 70° ENE 17:26:48 10° N
Cosmos 968 Rocket 3.5 17:19:00 10° NNW 17:24:09 56° ENE 17:29:14 10° SE
Cosmos 1553 Rocket 4.1 17:18:16 10° S 17:24:27 58° E 17:30:36 10° NNE
Cosmos 1300 3.4 17:22:28 10° SSW 17:26:13 56° W 17:29:59 10° N
Atlas Centaur 2 4.4 17:21:06 10° SW 17:27:31 25° S 17:33:48 11° ESE
FALCON 9 DEB 3.6 17:24:26 10° WSW 17:27:36 50° NNW 17:29:34 20° NE
CZ-4 R/B 1.6 17:25:12 10° SE 17:28:52 42° ENE 17:32:32 10° N
Lacrosse 5 3.5 17:25:09 10° NW 17:29:06 22° N 17:32:14 13° NE
Cosmos 1697 Rocket 3.1 17:24:24 10° S 17:29:32 38° ESE 17:34:41 10° NE
FALCON 9 DEB 3.7 17:27:37 10° W 17:30:42 45° NNW 17:32:31 21° NE
Cosmos 2058 3.2 17:29:08 10° N 17:33:03 42° ENE 17:36:58 10° SSE
Meteor 2-1 Rocket 4.5 17:28:49 10° SSE 17:33:57 42° E 17:39:08 10° NNE
Cosmos 1825 3.1 17:31:09 10° NNE 17:34:21 26° ENE 17:34:21 26° ENE
PSLV R/B 3.9 17:30:20 10° NNE 17:34:29 64° ESE 17:38:35 10° S
SAR-Lupe-4 3.7 17:31:10 10° N 17:34:45 74° WNW 17:38:19 10° SSW
Meteor 2-15 4.5 17:30:45 10° S 17:36:43 57° E 17:42:44 10° NNE
CZ-2D R/B 3.1 17:33:08 10° SSE 17:36:55 72° ENE 17:40:43 10° N
Cosmos 44 Rocket 4.2 17:33:38 10° SSE 17:37:32 26° ESE 17:38:24 24° E
SKYMED 2 3.5 17:34:00 10° NNE 17:38:23 86° ESE 17:42:43 10° SSW
ERS-2 3.8 17:35:16 10° N 17:38:37 35° WNW 17:41:57 10° SW
Cosmos 1302 Rocket 4.3 17:34:36 10° SSW 17:39:51 71° WNW 17:45:10 10° NNE
FALCON 9 DEB 4.3 17:37:04 10° NW 17:40:06 28° NNE 17:40:54 25° NE
Okean-O 2.5 17:37:05 10° SSE 17:41:28 67° ENE 17:45:52 10° N
Cosmos 220 Rocket 4.1 17:37:16 10° S 17:41:29 51° ESE 17:45:06 14° NNE
SL-4 R/B 2.6 17:38:18 10° WNW 17:41:37 35° NNE 17:42:47 28° NE
Cosmos 1346 Rocket 2.8 17:38:52 10° N 17:42:49 57° ENE 17:46:45 10° SSE
FALCON 9 DEB 4.0 17:41:01 10° W 17:44:06 40° NNW 17:45:25 26° NNE
SL-08 R/B 4.4 17:39:54 10° N 17:46:07 88° E 17:52:13 10° S
Cosmos 1340 3.2 17:42:34 10° NNW 17:46:18 59° W 17:50:01 10° S
Cosmos 1486 Rocket 4.0 17:43:53 10° NNW 17:49:15 88° WSW 17:54:34 10° SSE
Cosmos 1315 Rocket 2.9 17:46:29 10° S 17:50:19 51° E 17:54:01 11° NNE
Cosmos 1745 Rocket 3.9 17:44:40 10° N 17:50:59 71° E 17:57:18 10° SSE
Cosmos 1980 Rocket 2.8 17:47:51 10° SSE 17:52:43 31° ESE 17:53:26 30° E
Cosmos 1689 Rocket 2.8 17:50:30 10° N 17:53:20 51° WNW 17:56:07 10° SSW
Cosmos 2297 Rocket 2.7 17:48:39 10° NNW 17:54:15 61° WSW 17:59:48 10° S
USA 305 2.9 17:50:12 10° NW 17:54:29 63° NNE 17:55:45 41° E
FALCON 9 DEB 4.2 17:51:46 10° W 17:54:45 34° NNW 17:55:34 29° NNE
CZ-4B R/B 4.0 17:53:30 10° NNW 17:55:58 20° WNW 17:58:22 10° WSW
In-Cosmos 22 Rocket 4.5 17:50:47 10° NNW 17:56:08 66° W 18:01:32 10° S
CSL-04 Debris 4.2 17:53:45 10° SSE 17:59:05 60° ENE 18:04:28 10° N
Cosmos 1503 Rocket 3.9 17:54:03 10° NNW 17:59:17 67° ENE 18:03:10 18° SSE
USA 306 2.8 17:56:40 10° NW 18:00:57 69° NNE 18:01:57 49° E
Cosmos 1386 Rocket 4.4 17:55:39 10° N 18:02:06 81° E 18:08:25 10° S
Cosmos 2058 Rocket 4.4 18:00:30 10° SSW 18:04:45 41° WNW 18:09:02 10° N
DMSP B5D1-3 4.5 18:00:18 10° NNE 18:05:24 60° ESE 18:10:29 10° S
CZ-2C R/B 3.2 18:01:54 10° SSE 18:07:41 89° E 18:13:21 10° NNW
Cosmos 1354 Rocket 3.9 18:06:12 10° NNW 18:11:29 74° ENE 18:14:15 29° SSE
Cosmos 2360 4.1 18:06:40 10° SSW 18:12:19 65° ESE 18:15:32 26° NE
Cosmos 1455 2.2 18:10:18 10° SSW 18:14:04 80° W 18:17:16 14° N
CZ-4C R/B 3.9 18:09:38 10° NNW 18:15:25 28° NNE 18:16:59 26° NE
Cosmos 1992 Rocket 4.0 18:12:23 10° SSW 18:17:36 81° WNW 18:22:43 11° NNE
Meteor 2-10 Rocket 3.8 18:14:31 10° SSW 18:19:48 69° WNW 18:24:55 10° N
Cosmos 1709 Rocket 3.9 18:14:15 10° N 18:20:39 69° E 18:26:59 10° SSE
Cosmos 1076 Rocket 3.5 18:17:56 10° NNW 18:22:12 77° W 18:25:01 21° S
Cosmos 2278 3.7 18:18:31 10° S 18:24:04 58° ESE 18:24:51 53° ENE
COSMO-SKYMED 1 4.4 18:22:26 10° N 18:26:17 31° WNW 18:30:05 10° SW
Meteor 2-3 Rocket 4.5 18:23:04 10° N 18:27:07 36° NE 18:27:07 36° NE
Ariane Rocket 4.3 18:30:46 27° NNE 18:30:46 27° NNE 18:33:24 10° N
Geosat 3.9 18:29:49 43° NNE 18:31:31 88° ESE 18:36:33 10° SSW
Cosmos 2082 4.1 18:28:34 10° NNW 18:34:15 64° WSW 18:38:04 21° S
H-2A R/B 2.2 18:28:51 10° S 18:34:16 76° WSW 18:39:46 10° NNW
Cosmos 883 Rocket 4.3 18:28:46 10° S 18:34:55 87° E 18:41:05 10° N
ATLAS 5 CENTAUR R/B 4.4 18:34:29 10° N 18:35:26 10° N 18:36:16 10° NNE
ARGOS 3.0 18:36:01 45° SSE 18:37:48 87° ENE 18:43:16 10° NNW
YAOGAN 1 3.9 18:35:40 10° SSW 18:39:41 38° W 18:43:45 10° NNW
GEOS 3 Rocket 3.6 18:41:31 69° SSE 18:42:13 87° SW 18:47:39 10° NW
Cosmos 2315 Rocket 3.8 18:36:08 10° S 18:42:20 82° E 18:48:34 10° N
SeaSat 1 2.5 18:43:27 65° N 18:43:27 65° N 18:47:47 10° NNW
USA 307 3.5 18:40:02 10° WNW 18:43:36 54° W 18:43:36 54° W
Cosmos 1812 Rocket 4.4 18:42:57 10° SSW 18:47:12 49° WNW 18:51:29 10° N
NOSS 3-4 (A) 3.8 18:40:42 10° NW 18:47:38 67° NE 18:48:36 61° E
NOSS 3-4 (C) 3.8 18:40:49 10° NW 18:47:44 66° NE 18:48:40 61° E
Cosmos 2369 4.0 18:42:31 10° SW 18:48:11 64° WNW 18:51:18 27° NNE
USA 308 3.8 18:44:58 10° WNW 18:48:20 48° W 18:48:20 48° W
DEBRIS 4.1 18:33:05 10° WSW 18:50:48 82° NNW 18:51:52 63° NE
USA 215 3.6 18:54:35 48° NE 18:55:01 48° NNE 19:01:15 10° NW
NOSS 3-3 (A) 4.4 18:50:35 10° SW 18:56:23 58° NW 18:59:03 34° NNE
NOSS 3-3 (C) 4.4 18:50:41 10° SW 18:56:29 58° NW 18:59:06 35° NNE
MOS 1 Rocket 4.3 18:53:39 10° N 18:58:09 47° WNW 19:02:54 10° SW
Cosmos 2227 Rocket 4.4 18:53:49 10° NW 18:58:11 23° WSW 19:02:32 10° SSW
Cosmos 2263 Rocket 2.9 18:57:10 10° NNW 19:01:09 44° N 19:01:09 44° N
CZ-4 R/B 4.2 19:01:41 10° SW 19:04:06 16° W 19:06:32 10° NW
ATLAS 2AS CENTAUR R/B 2.8 19:02:17 10° NW 19:09:28 70° NNE 19:09:28 70° NNE
BREEZE-M R/B 4.1 19:05:26 10° WNW 19:10:24 86° SSW 19:10:34 84° SSE
Lacrosse 5 3.5 19:08:42 10° NW 19:11:26 26° NNW 19:11:26 26° NNW
Cosmos 1697 Rocket 4.0 19:08:20 10° WSW 19:13:30 37° NW 19:16:32 22° N
Atlas Centaur 2 4.2 19:09:25 10° WSW 19:16:10 27° S 19:16:24 27° S
Cosmos 1980 Rocket 3.4 19:31:12 10° SW 19:35:17 38° W 19:35:17 38° W
CZ-4C R/B 3.8 19:57:49 10° NW 20:02:11 43° NNW 20:02:11 43° NNW
